Time,TemperatureF,DewpointF,PressureIn,WindDirection,WindDirectionDegrees,WindSpeedMPH,WindSpeedGustMPH,Humidity,HourlyPrecipIn,Conditions,Clouds,dailyrainin,SolarRadiationWatts/m^2,SoftwareType,DateUTC
2013-10-20 00:42:00,46.0,28.0,30.06,NE,54,2.0,4.0,48,-99.99,,,-99.99,0.000000,,2013-10-20 06:42:00,
2013-10-20 01:22:00,46.0,28.0,30.05,North,1,3.0,5.0,49,-99.99,,,-99.99,0.000000,,2013-10-20 07:22:00,
2013-10-20 01:32:00,46.0,28.0,30.05,North,1,3.0,5.0,49,-99.99,,,-99.99,0.000000,,2013-10-20 07:32:00,
2013-10-20 01:52:00,44.0,27.0,30.05,NE,34,3.0,4.0,51,-99.99,,,-99.99,0.000000,,2013-10-20 07:52:00,
2013-10-20 02:11:00,44.0,27.0,30.04,North,360,2.0,5.0,51,-99.99,,,-99.99,0.000000,,2013-10-20 08:11:00,
2013-10-20 02:22:00,40.0,28.0,30.04,NNW,347,3.0,6.0,60,-99.99,,,-99.99,0.000000,,2013-10-20 08:22:00,
2013-10-20 02:42:00,41.0,29.0,30.05,NNW,332,3.0,5.0,62,-99.99,,,-99.99,0.000000,,2013-10-20 08:42:00,
2013-10-20 08:12:00,39.0,27.0,30.03,SSE,162,2.0,3.0,60,-99.99,,,-99.99,62.759998,,2013-10-20 14:12:00,
2013-10-20 12:12:00,65.0,28.0,30.03,South,188,4.0,7.0,24,-99.99,,,-99.99,681.289978,,2013-10-20 18:12:00,
2013-10-20 15:44:00,77.0,13.0,29.92,West,267,8.0,14.0,8,-99.99,,,-99.99,551.590027,,2013-10-20 21:44:00,
2013-10-20 16:53:00,77.0,11.0,29.90,WSW,258,8.0,15.0,7,-99.99,,,-99.99,351.459991,,2013-10-20 22:53:00,
2013-10-20 17:03:00,77.0,11.0,29.90,WSW,258,8.0,15.0,7,-99.99,,,-99.99,351.459991,,2013-10-20 23:03:00,
2013-10-20 17:13:00,77.0,11.0,29.90,WSW,258,8.0,15.0,7,-99.99,,,-99.99,351.459991,,2013-10-20 23:13:00,
2013-10-20 19:42:00,65.0,13.0,29.90,SW,231,8.0,10.0,13,-99.99,,,-99.99,0.000000,,2013-10-21 01:42:00,
2013-10-20 20:42:00,67.0,9.0,29.90,West,266,8.0,13.0,10,-99.99,,,-99.99,0.000000,,2013-10-21 02:42:00,
2013-10-20 20:52:00,67.0,8.0,29.91,West,273,8.0,14.0,9,-99.99,,,-99.99,0.000000,,2013-10-21 02:52:00,
2013-10-20 21:03:00,67.0,8.0,29.91,West,273,8.0,14.0,9,-99.99,,,-99.99,0.000000,,2013-10-21 03:03:00,
2013-10-20 21:45:00,64.0,10.0,29.91,WNW,303,6.0,10.0,11,-99.99,,,-99.99,0.000000,,2013-10-21 03:45:00,
2013-10-20 22:44:00,65.0,11.0,29.92,WNW,286,6.0,9.0,11,-99.99,,,-99.99,0.000000,,2013-10-21 04:44:00,
2013-10-20 23:13:00,65.0,12.0,29.92,SW,225,2.0,6.0,12,-99.99,,,-99.99,0.000000,,2013-10-21 05:13:00,
2013-10-20 23:43:00,62.0,13.0,29.92,East,83,2.0,5.0,14,-99.99,,,-99.99,0.000000,,2013-10-21 05:43:00,